Year,Month,Day,Hour,Minute,Value (Times are PST for windgust in km/hr)
2013,05,13,00,00,9.60
2013,05,13,00,01,11.30
2013,05,13,00,02,16.10
2013,05,13,00,03,11.30
2013,05,13,00,04,11.30
2013,05,13,00,05,11.30
2013,05,13,00,06,14.50
2013,05,13,00,07,14.50
2013,05,13,00,08,9.60
2013,05,13,00,09,6.40
2013,05,13,00,10,9.60
2013,05,13,00,11,11.30
2013,05,13,00,12,8.10
2013,05,13,00,13,6.40
2013,05,13,00,14,6.40
2013,05,13,00,15,8.10
2013,05,13,00,16,8.10
2013,05,13,00,17,8.10
2013,05,13,00,18,8.10
2013,05,13,00,19,8.10
2013,05,13,00,20,6.40
2013,05,13,00,21,6.40
2013,05,13,00,22,8.10
2013,05,13,00,23,4.80
2013,05,13,00,24,4.80
2013,05,13,00,25,4.80
2013,05,13,00,26,6.40
2013,05,13,00,27,6.40
2013,05,13,00,28,6.40
2013,05,13,00,29,6.40
2013,05,13,00,30,9.60
2013,05,13,00,31,8.10
2013,05,13,00,32,9.60
2013,05,13,00,33,11.30
2013,05,13,00,34,8.10
2013,05,13,00,35,8.10
2013,05,13,00,36,9.60
2013,05,13,00,37,9.60
2013,05,13,00,38,8.10
2013,05,13,00,39,9.60
2013,05,13,00,40,11.30
2013,05,13,00,41,8.10
2013,05,13,00,42,8.10
2013,05,13,00,43,16.10
2013,05,13,00,44,16.10
2013,05,13,00,45,11.30
2013,05,13,00,46,11.30
2013,05,13,00,47,12.90
2013,05,13,00,48,16.10
2013,05,13,00,49,14.50
2013,05,13,00,50,16.10
2013,05,13,00,51,14.50
2013,05,13,00,52,11.30
2013,05,13,00,53,9.60
2013,05,13,00,54,4.80
2013,05,13,00,55,8.10
2013,05,13,00,56,4.80
2013,05,13,00,57,4.80
2013,05,13,00,58,4.80
2013,05,13,00,59,6.40
2013,05,13,01,00,6.40
2013,05,13,01,01,6.40
2013,05,13,01,02,6.40
2013,05,13,01,03,8.10
2013,05,13,01,04,8.10
2013,05,13,01,05,9.60
2013,05,13,01,06,9.60
2013,05,13,01,07,9.60
2013,05,13,01,08,11.30
2013,05,13,01,09,11.30
2013,05,13,01,10,9.60
2013,05,13,01,11,9.60
2013,05,13,01,12,14.50
2013,05,13,01,13,11.30
2013,05,13,01,14,9.60
2013,05,13,01,15,6.40
2013,05,13,01,16,9.60
2013,05,13,01,17,8.10
2013,05,13,01,18,14.50
2013,05,13,01,19,14.50
2013,05,13,01,20,17.70
2013,05,13,01,21,14.50
2013,05,13,01,22,14.50
2013,05,13,01,23,16.10
2013,05,13,01,24,16.10
2013,05,13,01,25,16.10
2013,05,13,01,26,17.70
2013,05,13,01,27,16.10
2013,05,13,01,28,17.70
2013,05,13,01,29,11.30
2013,05,13,01,30,19.30
2013,05,13,01,31,14.50
2013,05,13,01,32,14.50
2013,05,13,01,33,14.50
2013,05,13,01,34,16.10
2013,05,13,01,35,11.30
2013,05,13,01,36,12.90
2013,05,13,01,37,12.90
2013,05,13,01,38,11.30
2013,05,13,01,39,8.10
2013,05,13,01,40,8.10
2013,05,13,01,41,9.60
2013,05,13,01,42,8.10
2013,05,13,01,43,11.30
2013,05,13,01,44,8.10
2013,05,13,01,45,8.10
2013,05,13,01,46,11.30
2013,05,13,01,47,12.90
2013,05,13,01,48,14.50
2013,05,13,01,49,9.60
2013,05,13,01,50,9.60
2013,05,13,01,51,11.30
2013,05,13,01,52,8.10
2013,05,13,01,53,11.30
2013,05,13,01,54,11.30
2013,05,13,01,55,14.50
2013,05,13,01,56,12.90
2013,05,13,01,57,11.30
2013,05,13,01,58,11.30
2013,05,13,01,59,14.50
2013,05,13,02,00,16.10
2013,05,13,02,01,14.50
2013,05,13,02,02,11.30
2013,05,13,02,03,12.90
2013,05,13,02,04,14.50
2013,05,13,02,05,11.30
2013,05,13,02,06,14.50
2013,05,13,02,07,11.30
2013,05,13,02,08,9.60
2013,05,13,02,09,9.60
2013,05,13,02,10,9.60
2013,05,13,02,11,8.10
2013,05,13,02,12,9.60
2013,05,13,02,13,11.30
2013,05,13,02,14,11.30
2013,05,13,02,15,6.40
2013,05,13,02,16,16.10
2013,05,13,02,17,9.60
2013,05,13,02,18,9.60
2013,05,13,02,19,9.60
2013,05,13,02,20,12.90
2013,05,13,02,21,9.60
2013,05,13,02,22,8.10
2013,05,13,02,23,6.40
2013,05,13,02,24,4.80
2013,05,13,02,25,4.80
2013,05,13,02,26,6.40
2013,05,13,02,27,4.80
2013,05,13,02,28,3.20
2013,05,13,02,29,1.60
2013,05,13,02,30,3.20
2013,05,13,02,31,0.00
2013,05,13,02,32,0.00
2013,05,13,02,33,0.00
2013,05,13,02,34,3.20
2013,05,13,02,35,3.20
2013,05,13,02,36,4.80
2013,05,13,02,37,3.20
2013,05,13,02,38,4.80
2013,05,13,02,39,4.80
2013,05,13,02,40,4.80
2013,05,13,02,41,4.80
2013,05,13,02,42,3.20
2013,05,13,02,43,3.20
2013,05,13,02,44,3.20
2013,05,13,02,45,3.20
2013,05,13,02,46,3.20
2013,05,13,02,47,4.80
2013,05,13,02,48,3.20
2013,05,13,02,49,3.20
2013,05,13,02,50,3.20
2013,05,13,02,51,3.20
2013,05,13,02,52,4.80
2013,05,13,02,53,4.80
2013,05,13,02,54,4.80
2013,05,13,02,55,4.80
2013,05,13,02,56,6.40
2013,05,13,02,57,4.80
2013,05,13,02,58,4.80
2013,05,13,02,59,6.40
2013,05,13,03,00,6.40
2013,05,13,03,01,4.80
2013,05,13,03,02,4.80
2013,05,13,03,03,4.80
2013,05,13,03,04,6.40
2013,05,13,03,05,6.40
2013,05,13,03,06,4.80
2013,05,13,03,07,4.80
2013,05,13,03,08,4.80
2013,05,13,03,09,4.80
2013,05,13,03,10,4.80
2013,05,13,03,11,3.20
2013,05,13,03,12,3.20
2013,05,13,03,13,3.20
2013,05,13,03,14,3.20
2013,05,13,03,15,4.80
2013,05,13,03,16,4.80
2013,05,13,03,17,3.20
2013,05,13,03,18,4.80
2013,05,13,03,19,4.80
2013,05,13,03,20,4.80
2013,05,13,03,21,4.80
2013,05,13,03,22,8.10
2013,05,13,03,23,6.40
2013,05,13,03,24,8.10
2013,05,13,03,25,4.80
2013,05,13,03,26,4.80
2013,05,13,03,27,8.10
2013,05,13,03,28,6.40
2013,05,13,03,29,6.40
2013,05,13,03,30,6.40
2013,05,13,03,31,6.40
2013,05,13,03,32,6.40
2013,05,13,03,33,4.80
2013,05,13,03,34,8.10
2013,05,13,03,35,6.40
2013,05,13,03,36,3.20
2013,05,13,03,37,4.80
2013,05,13,03,38,8.10
2013,05,13,03,39,6.40
2013,05,13,03,40,8.10
2013,05,13,03,41,4.80
2013,05,13,03,42,8.10
2013,05,13,03,43,8.10
2013,05,13,03,44,9.60
2013,05,13,03,45,11.30
2013,05,13,03,46,8.10
2013,05,13,03,47,8.10
2013,05,13,03,48,4.80
2013,05,13,03,49,6.40
2013,05,13,03,50,4.80
2013,05,13,03,51,6.40
2013,05,13,03,52,6.40
2013,05,13,03,53,6.40
2013,05,13,03,54,8.10
2013,05,13,03,55,6.40
2013,05,13,03,56,8.10
2013,05,13,03,57,9.60
2013,05,13,03,58,6.40
2013,05,13,03,59,6.40
2013,05,13,04,00,8.10
2013,05,13,04,01,6.40
2013,05,13,04,02,6.40
2013,05,13,04,03,6.40
2013,05,13,04,04,6.40
2013,05,13,04,05,6.40
2013,05,13,04,06,6.40
2013,05,13,04,07,6.40
2013,05,13,04,08,6.40
2013,05,13,04,09,9.60
2013,05,13,04,10,9.60
2013,05,13,04,11,8.10
2013,05,13,04,12,9.60
2013,05,13,04,13,14.50
2013,05,13,04,14,9.60
2013,05,13,04,15,14.50
2013,05,13,04,16,11.30
2013,05,13,04,17,8.10
2013,05,13,04,18,6.40
2013,05,13,04,19,6.40
2013,05,13,04,20,9.60
2013,05,13,04,21,6.40
2013,05,13,04,22,8.10
2013,05,13,04,23,6.40
2013,05,13,04,24,4.80
2013,05,13,04,25,4.80
2013,05,13,04,26,6.40
2013,05,13,04,27,4.80
2013,05,13,04,28,4.80
2013,05,13,04,29,3.20
2013,05,13,04,30,3.20
2013,05,13,04,31,3.20
2013,05,13,04,32,1.60
2013,05,13,04,33,1.60
2013,05,13,04,34,0.00
2013,05,13,04,35,0.00
2013,05,13,04,36,1.60
2013,05,13,04,37,1.60
2013,05,13,04,38,1.60
2013,05,13,04,39,3.20
2013,05,13,04,40,3.20
2013,05,13,04,41,3.20
2013,05,13,04,42,1.60
2013,05,13,04,43,0.00
2013,05,13,04,44,1.60
2013,05,13,04,45,3.20
2013,05,13,04,46,3.20
2013,05,13,04,47,4.80
2013,05,13,04,48,6.40
2013,05,13,04,49,6.40
2013,05,13,04,50,6.40
2013,05,13,04,51,3.20
2013,05,13,04,52,4.80
2013,05,13,04,53,4.80
2013,05,13,04,54,4.80
2013,05,13,04,55,3.20
2013,05,13,04,56,4.80
2013,05,13,04,57,3.20
2013,05,13,04,58,0.00
2013,05,13,04,59,1.60
2013,05,13,05,00,1.60
2013,05,13,05,01,1.60
2013,05,13,05,02,3.20
2013,05,13,05,03,4.80
2013,05,13,05,04,3.20
2013,05,13,05,05,1.60
2013,05,13,05,06,0.00
2013,05,13,05,07,1.60
2013,05,13,05,08,1.60
2013,05,13,05,09,0.00
2013,05,13,05,10,1.60
2013,05,13,05,11,0.00
2013,05,13,05,12,0.00
2013,05,13,05,13,0.00
2013,05,13,05,14,0.00
2013,05,13,05,15,0.00
2013,05,13,05,16,1.60
2013,05,13,05,17,0.00
2013,05,13,05,18,1.60
2013,05,13,05,19,1.60
2013,05,13,05,20,0.00
2013,05,13,05,21,0.00
2013,05,13,05,22,1.60
2013,05,13,05,23,0.00
2013,05,13,05,24,0.00
2013,05,13,05,25,0.00
2013,05,13,05,26,0.00
2013,05,13,05,27,0.00
2013,05,13,05,28,1.60
2013,05,13,05,29,3.20
2013,05,13,05,30,3.20
2013,05,13,05,31,0.00
2013,05,13,05,32,3.20
2013,05,13,05,33,6.40
2013,05,13,05,34,4.80
2013,05,13,05,35,6.40
2013,05,13,05,36,4.80
2013,05,13,05,37,4.80
2013,05,13,05,38,6.40
2013,05,13,05,39,6.40
2013,05,13,05,40,6.40
2013,05,13,05,41,6.40
2013,05,13,05,42,8.10
2013,05,13,05,43,9.60
2013,05,13,05,44,9.60
2013,05,13,05,45,9.60
2013,05,13,05,46,9.60
2013,05,13,05,47,8.10
2013,05,13,05,48,8.10
2013,05,13,05,49,9.60
2013,05,13,05,50,9.60
2013,05,13,05,51,9.60
2013,05,13,05,52,8.10
2013,05,13,05,53,6.40
2013,05,13,05,54,4.80
2013,05,13,05,55,4.80
2013,05,13,05,56,8.10
2013,05,13,05,57,8.10
2013,05,13,05,58,8.10
2013,05,13,05,59,9.60
2013,05,13,06,00,8.10
2013,05,13,06,01,1.60
2013,05,13,06,02,6.40
2013,05,13,06,03,8.10
2013,05,13,06,04,6.40
2013,05,13,06,05,3.20
2013,05,13,06,06,8.10
2013,05,13,06,07,3.20
2013,05,13,06,08,4.80
2013,05,13,06,09,6.40
2013,05,13,06,10,6.40
2013,05,13,06,11,6.40
2013,05,13,06,12,6.40
2013,05,13,06,13,4.80
2013,05,13,06,14,6.40
2013,05,13,06,15,6.40
2013,05,13,06,16,6.40
2013,05,13,06,17,8.10
2013,05,13,06,18,6.40
2013,05,13,06,19,8.10
2013,05,13,06,20,9.60
2013,05,13,06,21,9.60
2013,05,13,06,22,8.10
2013,05,13,06,23,8.10
2013,05,13,06,24,9.60
2013,05,13,06,25,9.60
2013,05,13,06,26,6.40
2013,05,13,06,27,6.40
2013,05,13,06,28,9.60
2013,05,13,06,29,9.60
2013,05,13,06,30,8.10
2013,05,13,06,31,6.40
2013,05,13,06,32,11.30
2013,05,13,06,33,11.30
2013,05,13,06,34,14.50
2013,05,13,06,35,14.50
2013,05,13,06,36,14.50
2013,05,13,06,37,14.50
2013,05,13,06,38,11.30
2013,05,13,06,39,11.30
2013,05,13,06,40,14.50
2013,05,13,06,41,14.50
2013,05,13,06,42,16.10
2013,05,13,06,43,14.50
2013,05,13,06,44,16.10
2013,05,13,06,45,14.50
2013,05,13,06,46,14.50
2013,05,13,06,47,11.30
2013,05,13,06,48,11.30
2013,05,13,06,49,11.30
2013,05,13,06,50,9.60
2013,05,13,06,51,14.50
2013,05,13,06,52,14.50
2013,05,13,06,53,9.60
2013,05,13,06,54,8.10
2013,05,13,06,55,8.10
2013,05,13,06,56,9.60
2013,05,13,06,57,9.60
2013,05,13,06,58,8.10
2013,05,13,06,59,11.30
2013,05,13,07,00,8.10
2013,05,13,07,01,8.10
2013,05,13,07,02,9.60
2013,05,13,07,03,8.10
2013,05,13,07,04,8.10
2013,05,13,07,05,8.10
2013,05,13,07,06,6.40
2013,05,13,07,07,8.10
2013,05,13,07,08,6.40
2013,05,13,07,09,6.40
2013,05,13,07,10,3.20
2013,05,13,07,11,3.20
2013,05,13,07,12,4.80
2013,05,13,07,13,3.20
2013,05,13,07,14,0.00
2013,05,13,07,15,0.00
2013,05,13,07,16,3.20
2013,05,13,07,17,3.20
2013,05,13,07,18,4.80
2013,05,13,07,19,4.80
2013,05,13,07,20,3.20
2013,05,13,07,21,3.20
2013,05,13,07,22,4.80
2013,05,13,07,23,8.10
2013,05,13,07,24,8.10
2013,05,13,07,25,4.80
2013,05,13,07,26,4.80
2013,05,13,07,27,4.80
2013,05,13,07,28,4.80
2013,05,13,07,29,4.80
2013,05,13,07,30,4.80
2013,05,13,07,31,4.80
2013,05,13,07,32,3.20
2013,05,13,07,33,3.20
2013,05,13,07,34,3.20
2013,05,13,07,35,6.40
2013,05,13,07,36,6.40
2013,05,13,07,37,6.40
2013,05,13,07,38,4.80
2013,05,13,07,39,4.80
2013,05,13,07,40,6.40
2013,05,13,07,41,4.80
2013,05,13,07,42,6.40
2013,05,13,07,43,6.40
2013,05,13,07,44,8.10
2013,05,13,07,45,8.10
2013,05,13,07,46,6.40
2013,05,13,07,47,8.10
2013,05,13,07,48,6.40
2013,05,13,07,49,3.20
2013,05,13,07,50,4.80
2013,05,13,07,51,3.20
2013,05,13,07,52,3.20
2013,05,13,07,53,4.80
2013,05,13,07,54,4.80
2013,05,13,07,55,8.10
2013,05,13,07,56,4.80
2013,05,13,07,57,6.40
2013,05,13,07,58,6.40
2013,05,13,07,59,4.80
2013,05,13,08,00,6.40
2013,05,13,08,01,4.80
2013,05,13,08,02,8.10
2013,05,13,08,03,8.10
2013,05,13,08,04,6.40
2013,05,13,08,05,8.10
2013,05,13,08,06,8.10
2013,05,13,08,07,9.60
2013,05,13,08,08,8.10
2013,05,13,08,09,6.40
2013,05,13,08,10,6.40
2013,05,13,08,11,3.20
2013,05,13,08,12,4.80
2013,05,13,08,13,4.80
2013,05,13,08,14,4.80
2013,05,13,08,15,3.20
2013,05,13,08,16,3.20
2013,05,13,08,17,4.80
2013,05,13,08,18,6.40
2013,05,13,08,19,6.40
2013,05,13,08,20,6.40
2013,05,13,08,21,6.40
2013,05,13,08,22,3.20
2013,05,13,08,23,3.20
2013,05,13,08,24,3.20
2013,05,13,08,25,3.20
2013,05,13,08,26,4.80
2013,05,13,08,27,8.10
2013,05,13,08,28,8.10
2013,05,13,08,29,8.10
2013,05,13,08,30,8.10
2013,05,13,08,31,4.80
2013,05,13,08,32,4.80
2013,05,13,08,33,4.80
2013,05,13,08,34,8.10
2013,05,13,08,35,6.40
2013,05,13,08,36,8.10
2013,05,13,08,37,8.10
2013,05,13,08,38,9.60
2013,05,13,08,39,9.60
2013,05,13,08,40,8.10
2013,05,13,08,41,8.10
2013,05,13,08,42,6.40
2013,05,13,08,43,6.40
2013,05,13,08,44,6.40
2013,05,13,08,45,8.10
2013,05,13,08,46,6.40
2013,05,13,08,47,6.40
2013,05,13,08,48,4.80
2013,05,13,08,49,6.40
2013,05,13,08,50,4.80
2013,05,13,08,51,4.80
2013,05,13,08,52,6.40
2013,05,13,08,53,8.10
2013,05,13,08,54,8.10
2013,05,13,08,55,6.40
2013,05,13,08,56,6.40
2013,05,13,08,57,4.80
2013,05,13,08,58,4.80
2013,05,13,08,59,6.40
2013,05,13,09,00,6.40
2013,05,13,09,01,3.20
2013,05,13,09,02,3.20
2013,05,13,09,03,4.80
2013,05,13,09,04,4.80
2013,05,13,09,05,8.10
2013,05,13,09,06,8.10
2013,05,13,09,07,4.80
2013,05,13,09,08,4.80
2013,05,13,09,09,3.20
2013,05,13,09,10,3.20
2013,05,13,09,11,3.20
2013,05,13,09,12,8.10
2013,05,13,09,13,8.10
2013,05,13,09,14,8.10
2013,05,13,09,15,8.10
2013,05,13,09,16,9.60
2013,05,13,09,17,11.30
2013,05,13,09,18,11.30
2013,05,13,09,19,11.30
2013,05,13,09,20,11.30
2013,05,13,09,21,8.10
2013,05,13,09,22,8.10
2013,05,13,09,23,9.60
2013,05,13,09,24,4.80
2013,05,13,09,25,9.60
2013,05,13,09,26,9.60
2013,05,13,09,27,8.10
2013,05,13,09,28,8.10
2013,05,13,09,29,8.10
2013,05,13,09,30,11.30
2013,05,13,09,31,16.10
2013,05,13,09,32,12.90
2013,05,13,09,33,11.30
2013,05,13,09,34,16.10
2013,05,13,09,35,12.90
2013,05,13,09,36,16.10
2013,05,13,09,37,12.90
2013,05,13,09,38,14.50
2013,05,13,09,39,14.50
2013,05,13,09,40,14.50
2013,05,13,09,41,11.30
2013,05,13,09,42,11.30
2013,05,13,09,43,16.10
2013,05,13,09,44,11.30
2013,05,13,09,45,9.60
2013,05,13,09,46,11.30
2013,05,13,09,47,16.10
2013,05,13,09,48,11.30
2013,05,13,09,49,9.60
2013,05,13,09,50,9.60
2013,05,13,09,51,9.60
2013,05,13,09,52,11.30
2013,05,13,09,53,14.50
2013,05,13,09,54,8.10
2013,05,13,09,55,16.10
2013,05,13,09,56,17.70
2013,05,13,09,57,14.50
2013,05,13,09,58,14.50
2013,05,13,09,59,16.10
2013,05,13,10,00,12.90
2013,05,13,10,01,11.30
2013,05,13,10,02,16.10
2013,05,13,10,03,22.50
2013,05,13,10,04,20.90
2013,05,13,10,05,20.90
2013,05,13,10,06,20.90
2013,05,13,10,07,17.70
2013,05,13,10,08,12.90
2013,05,13,10,09,17.70
2013,05,13,10,10,19.30
2013,05,13,10,11,8.10
2013,05,13,10,12,17.70
2013,05,13,10,13,17.70
2013,05,13,10,14,16.10
2013,05,13,10,15,16.10
2013,05,13,10,16,19.30
2013,05,13,10,17,19.30
2013,05,13,10,18,19.30
2013,05,13,10,19,17.70
2013,05,13,10,20,19.30
2013,05,13,10,21,17.70
2013,05,13,10,22,16.10
2013,05,13,10,23,20.90
2013,05,13,10,24,22.50
2013,05,13,10,25,19.30
2013,05,13,10,26,19.30
2013,05,13,10,27,14.50
2013,05,13,10,28,20.90
2013,05,13,10,29,17.70
2013,05,13,10,30,14.50
2013,05,13,10,31,9.60
2013,05,13,10,32,9.60
2013,05,13,10,33,6.40
2013,05,13,10,34,9.60
2013,05,13,10,35,9.60
2013,05,13,10,36,14.50
2013,05,13,10,37,12.90
2013,05,13,10,38,14.50
2013,05,13,10,39,17.70
2013,05,13,10,40,17.70
2013,05,13,10,41,8.10
2013,05,13,10,42,11.30
2013,05,13,10,43,9.60
2013,05,13,10,44,4.80
2013,05,13,10,45,4.80
2013,05,13,10,46,3.20
2013,05,13,10,47,11.30
2013,05,13,10,48,9.60
2013,05,13,10,49,4.80
2013,05,13,10,50,8.10
2013,05,13,10,51,11.30
2013,05,13,10,52,9.60
2013,05,13,10,53,8.10
2013,05,13,10,54,9.60
2013,05,13,10,55,11.30
2013,05,13,10,56,9.60
2013,05,13,10,57,9.60
2013,05,13,10,58,11.30
2013,05,13,10,59,11.30
2013,05,13,11,00,9.60
2013,05,13,11,01,9.60
2013,05,13,11,02,9.60
2013,05,13,11,03,8.10
2013,05,13,11,04,4.80
2013,05,13,11,05,4.80
2013,05,13,11,06,9.60
2013,05,13,11,07,8.10
2013,05,13,11,08,6.40
2013,05,13,11,09,8.10
2013,05,13,11,10,8.10
2013,05,13,11,11,14.50
2013,05,13,11,12,9.60
2013,05,13,11,13,4.80
2013,05,13,11,14,3.20
2013,05,13,11,15,3.20
2013,05,13,11,16,3.20
2013,05,13,11,17,1.60
2013,05,13,11,18,1.60
2013,05,13,11,19,3.20
2013,05,13,11,20,3.20
2013,05,13,11,21,1.60
2013,05,13,11,22,11.30
2013,05,13,11,23,9.60
2013,05,13,11,24,3.20
2013,05,13,11,25,0.00
2013,05,13,11,26,1.60
2013,05,13,11,27,1.60
2013,05,13,11,28,6.40
2013,05,13,11,29,6.40
2013,05,13,11,30,8.10
2013,05,13,11,31,8.10
2013,05,13,11,32,6.40
2013,05,13,11,33,6.40
2013,05,13,11,34,1.60
2013,05,13,11,35,4.80
2013,05,13,11,36,3.20
2013,05,13,11,37,3.20
2013,05,13,11,38,1.60
2013,05,13,11,39,1.60
2013,05,13,11,40,1.60
2013,05,13,11,41,1.60
2013,05,13,11,42,1.60
2013,05,13,11,43,3.20
2013,05,13,11,44,4.80
2013,05,13,11,45,8.10
2013,05,13,11,46,8.10
2013,05,13,11,47,8.10
2013,05,13,11,48,8.10
2013,05,13,11,49,9.60
2013,05,13,11,50,6.40
2013,05,13,11,51,1.60
2013,05,13,11,52,1.60
2013,05,13,11,53,6.40
2013,05,13,11,54,6.40
2013,05,13,11,55,6.40
2013,05,13,11,56,4.80
2013,05,13,11,57,4.80
2013,05,13,11,58,3.20
2013,05,13,11,59,3.20
2013,05,13,12,00,3.20
2013,05,13,12,01,6.40
2013,05,13,12,02,4.80
2013,05,13,12,03,3.20
2013,05,13,12,04,1.60
2013,05,13,12,05,3.20
2013,05,13,12,06,1.60
2013,05,13,12,07,1.60
2013,05,13,12,08,1.60
2013,05,13,12,09,3.20
2013,05,13,12,10,3.20
2013,05,13,12,11,3.20
2013,05,13,12,12,3.20
2013,05,13,12,13,4.80
2013,05,13,12,14,6.40
2013,05,13,12,15,8.10
2013,05,13,12,16,6.40
2013,05,13,12,17,9.60
2013,05,13,12,18,8.10
2013,05,13,12,19,8.10
2013,05,13,12,20,9.60
2013,05,13,12,21,8.10
2013,05,13,12,22,8.10
2013,05,13,12,23,8.10
2013,05,13,12,24,6.40
2013,05,13,12,25,9.60
2013,05,13,12,26,8.10
2013,05,13,12,27,8.10
2013,05,13,12,28,8.10
2013,05,13,12,29,6.40
2013,05,13,12,30,4.80
2013,05,13,12,31,4.80
2013,05,13,12,32,4.80
2013,05,13,12,33,4.80
2013,05,13,12,34,4.80
2013,05,13,12,35,4.80
2013,05,13,12,36,4.80
2013,05,13,12,37,4.80
2013,05,13,12,38,6.40
2013,05,13,12,39,6.40
2013,05,13,12,40,6.40
2013,05,13,12,41,6.40
2013,05,13,12,42,6.40
2013,05,13,12,43,9.60
2013,05,13,12,44,9.60
2013,05,13,12,45,9.60
2013,05,13,12,46,9.60
2013,05,13,12,47,8.10
2013,05,13,12,48,4.80
2013,05,13,12,49,6.40
2013,05,13,12,50,6.40
2013,05,13,12,51,6.40
2013,05,13,12,52,8.10
2013,05,13,12,53,9.60
2013,05,13,12,54,6.40
2013,05,13,12,55,6.40
2013,05,13,12,56,4.80
2013,05,13,12,57,4.80
2013,05,13,12,58,3.20
2013,05,13,12,59,3.20
2013,05,13,13,00,4.80
2013,05,13,13,01,4.80
2013,05,13,13,02,6.40
2013,05,13,13,03,8.10
2013,05,13,13,04,8.10
2013,05,13,13,05,6.40
2013,05,13,13,06,6.40
2013,05,13,13,07,6.40
2013,05,13,13,08,6.40
2013,05,13,13,09,4.80
2013,05,13,13,10,6.40
2013,05,13,13,11,8.10
2013,05,13,13,12,4.80
2013,05,13,13,13,8.10
2013,05,13,13,14,8.10
2013,05,13,13,15,6.40
2013,05,13,13,16,9.60
2013,05,13,13,17,9.60
2013,05,13,13,18,8.10
2013,05,13,13,19,8.10
2013,05,13,13,20,6.40
2013,05,13,13,21,4.80
2013,05,13,13,22,3.20
2013,05,13,13,23,3.20
2013,05,13,13,24,3.20
2013,05,13,13,25,3.20
2013,05,13,13,26,3.20
2013,05,13,13,27,1.60
2013,05,13,13,28,1.60
2013,05,13,13,29,3.20
2013,05,13,13,30,3.20
2013,05,13,13,31,1.60
2013,05,13,13,32,3.20
2013,05,13,13,33,4.80
2013,05,13,13,34,4.80
2013,05,13,13,35,3.20
2013,05,13,13,36,3.20
2013,05,13,13,37,4.80
2013,05,13,13,38,4.80
2013,05,13,13,39,4.80
2013,05,13,13,40,4.80
2013,05,13,13,41,6.40
2013,05,13,13,42,9.60
2013,05,13,13,43,9.60
2013,05,13,13,44,6.40
2013,05,13,13,45,6.40
2013,05,13,13,46,9.60
2013,05,13,13,47,11.30
2013,05,13,13,48,9.60
2013,05,13,13,49,14.50
2013,05,13,13,50,16.10
2013,05,13,13,51,11.30
2013,05,13,13,52,9.60
2013,05,13,13,53,9.60
2013,05,13,13,54,16.10
2013,05,13,13,55,16.10
2013,05,13,13,56,17.70
2013,05,13,13,57,11.30
2013,05,13,13,58,16.10
2013,05,13,13,59,20.90
2013,05,13,14,00,17.70
2013,05,13,14,01,17.70
2013,05,13,14,02,16.10
2013,05,13,14,03,20.90
2013,05,13,14,04,14.50
2013,05,13,14,05,17.70
2013,05,13,14,06,11.30
2013,05,13,14,07,20.90
2013,05,13,14,08,20.90
2013,05,13,14,09,17.70
2013,05,13,14,10,9.60
2013,05,13,14,11,16.10
2013,05,13,14,12,11.30
2013,05,13,14,13,22.50
2013,05,13,14,14,20.90
2013,05,13,14,15,16.10
2013,05,13,14,16,19.30
2013,05,13,14,17,20.90
2013,05,13,14,18,20.90
2013,05,13,14,19,25.70
2013,05,13,14,20,22.50
2013,05,13,14,21,20.90
2013,05,13,14,22,22.50
2013,05,13,14,23,19.30
2013,05,13,14,24,17.70
2013,05,13,14,25,17.70
2013,05,13,14,26,24.20
2013,05,13,14,27,22.50
2013,05,13,14,28,20.90
2013,05,13,14,29,16.10
2013,05,13,14,30,22.50
2013,05,13,14,31,27.40
2013,05,13,14,32,22.50
2013,05,13,14,33,22.50
2013,05,13,14,34,22.50
2013,05,13,14,35,24.20
2013,05,13,14,36,29.00
2013,05,13,14,37,32.20
2013,05,13,14,38,32.20
2013,05,13,14,39,22.50
2013,05,13,14,40,27.40
2013,05,13,14,41,24.20
2013,05,13,14,42,32.20
2013,05,13,14,43,27.40
2013,05,13,14,44,24.20
2013,05,13,14,45,25.70
2013,05,13,14,46,30.60
2013,05,13,14,47,32.20
2013,05,13,14,48,24.20
2013,05,13,14,49,24.20
2013,05,13,14,50,27.40
2013,05,13,14,51,22.50
2013,05,13,14,52,19.30
2013,05,13,14,53,30.60
2013,05,13,14,54,33.80
2013,05,13,14,55,29.00
2013,05,13,14,56,32.20
2013,05,13,14,57,25.70
2013,05,13,14,58,29.00
2013,05,13,14,59,24.20
2013,05,13,15,00,32.20
2013,05,13,15,01,32.20
2013,05,13,15,02,29.00
2013,05,13,15,03,33.80
2013,05,13,15,04,32.20
2013,05,13,15,05,35.40
2013,05,13,15,06,48.30
2013,05,13,15,07,33.80
2013,05,13,15,08,37.00
2013,05,13,15,09,30.60
2013,05,13,15,10,29.00
2013,05,13,15,11,29.00
2013,05,13,15,12,35.40
2013,05,13,15,13,33.80
2013,05,13,15,14,27.40
2013,05,13,15,15,41.80
2013,05,13,15,16,37.00
2013,05,13,15,17,30.60
2013,05,13,15,18,32.20
2013,05,13,15,19,41.80
2013,05,13,15,20,38.60
2013,05,13,15,21,32.20
2013,05,13,15,22,27.40
2013,05,13,15,23,27.40
2013,05,13,15,24,29.00
2013,05,13,15,25,32.20
2013,05,13,15,26,35.40
2013,05,13,15,27,37.00
2013,05,13,15,28,35.40
2013,05,13,15,29,30.60
2013,05,13,15,30,27.40
2013,05,13,15,31,30.60
2013,05,13,15,32,24.20
2013,05,13,15,33,25.70
2013,05,13,15,34,37.00
2013,05,13,15,35,24.20
2013,05,13,15,36,29.00
2013,05,13,15,37,27.40
2013,05,13,15,38,29.00
2013,05,13,15,39,29.00
2013,05,13,15,40,30.60
2013,05,13,15,41,32.20
2013,05,13,15,42,32.20
2013,05,13,15,43,29.00
2013,05,13,15,44,33.80
2013,05,13,15,45,30.60
2013,05,13,15,46,29.00
2013,05,13,15,47,27.40
2013,05,13,15,48,29.00
2013,05,13,15,49,25.70
2013,05,13,15,50,30.60
2013,05,13,15,51,22.50
2013,05,13,15,52,24.20
2013,05,13,15,53,27.40
2013,05,13,15,54,24.20
2013,05,13,15,55,25.70
2013,05,13,15,56,25.70
2013,05,13,15,57,22.50
2013,05,13,15,58,22.50
2013,05,13,15,59,22.50
2013,05,13,16,00,25.70
2013,05,13,16,01,22.50
2013,05,13,16,02,24.20
2013,05,13,16,03,20.90
2013,05,13,16,04,22.50
2013,05,13,16,05,22.50
2013,05,13,16,06,40.20
2013,05,13,16,07,46.70
2013,05,13,16,08,43.50
2013,05,13,16,09,62.70
2013,05,13,16,10,53.10
2013,05,13,16,11,46.70
2013,05,13,16,12,40.20
2013,05,13,16,13,46.70
2013,05,13,16,14,41.80
2013,05,13,16,15,41.80
2013,05,13,16,16,24.20
2013,05,13,16,17,24.20
2013,05,13,16,18,19.30
2013,05,13,16,19,22.50
2013,05,13,16,20,16.10
2013,05,13,16,21,16.10
2013,05,13,16,22,24.20
2013,05,13,16,23,19.30
2013,05,13,16,24,19.30
2013,05,13,16,25,25.70
2013,05,13,16,26,16.10
2013,05,13,16,27,22.50
2013,05,13,16,28,19.30
2013,05,13,16,29,22.50
2013,05,13,16,30,19.30
2013,05,13,16,31,19.30
2013,05,13,16,32,20.90
2013,05,13,16,33,11.30
2013,05,13,16,34,20.90
2013,05,13,16,35,14.50
2013,05,13,16,36,19.30
2013,05,13,16,37,9.60
2013,05,13,16,38,14.50
2013,05,13,16,39,16.10
2013,05,13,16,40,17.70
2013,05,13,16,41,16.10
2013,05,13,16,42,19.30
2013,05,13,16,43,20.90
2013,05,13,16,44,9.60
2013,05,13,16,45,11.30
2013,05,13,16,46,9.60
2013,05,13,16,47,12.90
2013,05,13,16,48,17.70
2013,05,13,16,49,11.30
2013,05,13,16,50,11.30
2013,05,13,16,51,9.60
2013,05,13,16,52,20.90
2013,05,13,16,53,16.10
2013,05,13,16,54,16.10
2013,05,13,16,55,16.10
2013,05,13,16,56,9.60
2013,05,13,16,57,11.30
2013,05,13,16,58,14.50
2013,05,13,16,59,9.60
2013,05,13,17,00,6.40
2013,05,13,17,01,11.30
2013,05,13,17,02,27.40
2013,05,13,17,03,11.30
2013,05,13,17,04,14.50
2013,05,13,17,05,11.30
2013,05,13,17,06,17.70
2013,05,13,17,07,19.30
2013,05,13,17,08,19.30
2013,05,13,17,09,8.10
2013,05,13,17,10,19.30
2013,05,13,17,11,9.60
2013,05,13,17,12,12.90
2013,05,13,17,13,14.50
2013,05,13,17,14,12.90
2013,05,13,17,15,19.30
2013,05,13,17,16,9.60
2013,05,13,17,17,16.10
2013,05,13,17,18,11.30
2013,05,13,17,19,17.70
2013,05,13,17,20,14.50
2013,05,13,17,21,14.50
2013,05,13,17,22,17.70
2013,05,13,17,23,16.10
2013,05,13,17,24,11.30
2013,05,13,17,25,8.10
2013,05,13,17,26,17.70
2013,05,13,17,27,16.10
2013,05,13,17,28,9.60
2013,05,13,17,29,17.70
2013,05,13,17,30,11.30
2013,05,13,17,31,17.70
2013,05,13,17,32,16.10
2013,05,13,17,33,11.30
2013,05,13,17,34,11.30
2013,05,13,17,35,17.70
2013,05,13,17,36,11.30
2013,05,13,17,37,20.90
2013,05,13,17,38,14.50
2013,05,13,17,39,17.70
2013,05,13,17,40,16.10
2013,05,13,17,41,14.50
2013,05,13,17,42,16.10
2013,05,13,17,43,11.30
2013,05,13,17,44,14.50
2013,05,13,17,45,20.90
2013,05,13,17,46,19.30
2013,05,13,17,47,22.50
2013,05,13,17,48,14.50